Regional Weather Roundup
Issued by NWS

Home | Current Version | Previous Version | Graphics & Text | Print | Product List | Glossary On
Versions: 1 2 3 4 5 6 7 8 9 10 11 12 13 14 15 16 17 18 19 20 21 22 23 24 25 26 27 28 29 30 31 32 33 34 35 36 37 38 39 40 41 42 43 44 45 46 47 48 49 50
000
ASUS43 KBIS 280510
RWRND

NORTH DAKOTA REGIONAL WEATHER ROUNDUP
NATIONAL WEATHER SERVICE BISMARCK ND
1200 AM CDT TUE APR 28 2015

NOTE: "FAIR" INDICATES FEW OR NO CLOUDS BELOW 12,000 FEET WITH NO
SIGNIFICANT WEATHER AND/OR OBSTRUCTIONS TO VISIBILITY.


NDZ001>003-009>011-017-280600-
NORTHWEST NORTH DAKOTA

CITY           SKY/WX    TMP DP  RH WIND       PRES   REMARKS
WILLISTON      CLEAR     44  38  79 SW6       30.30R
MINOT          CLEAR     43  38  82 SW12      30.27S
MINOT AFB      CLEAR     38  38 100 W8        30.26S
$$

NDZ018>021-031>035-040>046-280600-
SOUTHWEST NORTH DAKOTA

CITY           SKY/WX    TMP DP  RH WIND       PRES   REMARKS
BISMARCK       CLEAR     42  38  85 CALM      30.31R
DICKINSON      PTCLDY    37  33  85 W7        30.30S
GARRISON         N/A     38  35  89 W6        30.29S
HETTINGER ARPT CLEAR     39  35  86 NW3       30.32F
$$

NDZ004>008-012>016-024-026-027-054-280600-
NORTHEAST NORTH DAKOTA

CITY           SKY/WX    TMP DP  RH WIND       PRES   REMARKS
GRAND FORKS    LGT RAIN  46  44  93 N7        30.26R
GRND FRKS AFB  CLOUDY    47  46  95 NE8       30.26S
DEVILS LAKE      N/A     37  34  87 N3        30.27R VSB 1/4
$$

NDZ022-023-025-028>030-036>039-047>053-280600-
SOUTHEAST NORTH DAKOTA

CITY           SKY/WX    TMP DP  RH WIND       PRES   REMARKS
FARGO          CLOUDY    52  41  66 N16       30.23R
JAMESTOWN      MOCLDY    45  43  93 NW6       30.26F
$$




USA.gov is the U.S. government's official web portal to all federal, state and local government web resources and services.